Regional Weather Roundup
Issued by NWS

Home | Current Version | Previous Version | Graphics & Text | Print | Product List | Glossary Off
Versions: 1 2 3 4 5 6 7 8 9 10 11 12 13 14 15 16 17 18 19 20 21 22 23 24 25 26 27 28 29 30 31 32 33 34 35 36 37 38 39 40 41 42 43 44 45 46 47 48 49 50

000
ASUS43 KTOP 182208
RWRKS

WEATHER ROUNDUP FOR KANSAS
NATIONAL WEATHER SERVICE GOODLAND KS
500 PM CDT FRI AUG 18 2017

NOTE:  "FAIR" INDICATES FEW OR NO CLOUDS BELOW 12,000 FEET WITH NO
SIGNIFICANT WEATHER AND/OR OBSTRUCTIONS TO VISIBILITY.

KSZ001>006-013>018-027>032-041>047-182300-
NORTHWEST KANSAS

CITY           SKY/WX    TMP DP  RH WIND       PRES   REMARKS
GOODLAND       SUNNY     86  53  32 NE8       30.07F
HAYS           SUNNY     90  62  39 N9        29.95F
HILL CITY      SUNNY     91  60  35 NE9       29.99S
RUSSELL        SUNNY     93  62  35 N7        29.93F
$$

KSZ061>065-074>080-084>089-182300-
SOUTHWEST KANSAS

CITY           SKY/WX    TMP DP  RH WIND       PRES   REMARKS
DODGE CITY     SUNNY     92  58  31 W8        29.99F
ELKHART          N/A     89  61  39 SW7         N/A
GARDEN CITY    SUNNY     90  61  37 VRB3      30.00F
GREAT BEND     SUNNY     91  64  40 VRB3      29.95F
LIBERAL        SUNNY     90  65  43 SW7       30.02F
PRATT          SUNNY     95  55  25 NW8       29.95S
$$

KSZ066>073-081>083-090>101-182300-
SOUTHEAST KANSAS

CITY           SKY/WX    TMP DP  RH WIND       PRES   REMARKS
CHANUTE        MOSUNNY   89  70  53 SW10      29.93F
COFFEYVILLE    SUNNY     89  70  53 SW10      29.90F
HUTCHINSON     SUNNY     92  66  42 SE10      29.93F
MEDICINE LODGE   N/A     92  65  40 S14       29.92F
NEWTON         SUNNY     89  66  46 S3        29.96F
PARSONS        SUNNY     88  70  55 SW10      29.94F
WICHITA INTL   SUNNY     92  67  43 S9        29.93F HX  95
WICHITA JABRA  SUNNY     91  64  40 CALM      29.94F
WICHITA MCCONL SUNNY     92  61  35 S14       29.94F
WINFIELD       SUNNY     88  67  49 S8        29.95F
$$

KSZ007>012-019>026-033>040-048>060-102>105-182300-
NORTHEAST KANSAS

CITY           SKY/WX    TMP DP  RH WIND       PRES   REMARKS
CONCORDIA      SUNNY     88  67  49 NE6       29.93F
EMPORIA        SUNNY     88  66  48 CALM      29.93F
LAWRENCE       SUNNY     90  66  45 SW10      29.89F
MANHATTAN      SUNNY     90  68  48 NW3       29.91F
MARYSVILLE     CLOUDY    90  63  40 N7        29.91F
OLATHE IND     SUNNY     88  68  51 W7        29.92F
OLATHE EXE     SUNNY     86  69  56 SW8       29.92F
SALINA         SUNNY     94  63  35 W9        29.92F HX  95
TOPEKA BILLARD SUNNY     90  66  45 W10       29.90F
TOPEKA FORBES  SUNNY     90  66  45 W7        29.91F
$$



USA.gov is the U.S. government's official web portal to all federal, state and local government web resources and services.